Regional Weather Roundup
Issued by NWS

Home | Current Version | Previous Version | Graphics & Text | Print | Product List | Glossary On
Versions: 1 2 3 4 5 6 7 8 9 10 11 12 13 14 15 16 17 18 19 20 21 22 23 24 25 26 27 28 29 30 31 32 33 34 35 36 37 38 39 40 41 42 43 44 45 46 47 48 49 50
000
ASUS43 KOAX 061910
RWRNE

WEATHER ROUNDUP FOR NEBRASKA
NATIONAL WEATHER SERVICE OMAHA NE
200 PM CDT MON JUL 06 2015

NOTES: SATELLITE DATA IS BEING USED TO AUGMENT CLOUD COVER ABOVE
       12000 FEET.
       "FAIR" INDICATES FEW OR NO CLOUDS BELOW 12,000 FEET WITH NO
       SIGNIFICANT WEATHER AND/OR OBSTRUCTIONS TO VISIBILITY.

  * THESE STATIONS DO NOT REPORT WEATHER SUCH AS RAIN...SNOW OR FOG.

NEZ001>004-019>022-054>056-062000-
NEBRASKA PANHANDLE

CITY           SKY/WX    TMP DP  RH WIND       PRES   REMARKS
SCOTTSBLUFF    CLOUDY    65  52  62 N8        30.26S HAZE
ALLIANCE       PTSUNNY   68  54  60 N14       30.23S HAZE
CHADRON        CLOUDY    69  55  60 VRB7      30.24S HAZE
KIMBALL          N/A    N/A N/A N/A MISG        N/A
SIDNEY         CLOUDY    69  52  54 N17       30.25S HAZE
$$

NEZ057>060-069>072-079>082-062000-
SOUTHWEST NEBRASKA

CITY           SKY/WX    TMP DP  RH WIND       PRES   REMARKS
NORTH PLATTE   PTSUNNY   73  56  54 N20       30.13S
IMPERIAL       CLOUDY    71  55  56 N15       30.16S
LEXINGTON      PTSUNNY   76  62  60 N18G24    30.08S HAZE
MCCOOK         CLOUDY    71  60  68 N20       30.10R HAZE
OGALLALA       MOSUNNY   74  53  48 NE16G22   30.18S HAZE
$$

NEZ005>010-023>029-035>040-094-062000-
NORTH CENTRAL NEBRASKA

CITY           SKY/WX    TMP DP  RH WIND       PRES   REMARKS
VALENTINE      PTSUNNY   73  51  46 N17G24    30.15S
AINSWORTH      MOSUNNY   73  54  51 N17G26    30.14F HAZE
BROKEN BOW     MOSUNNY   75  54  47 N15G31    30.09R HAZE
O`NEILL        CLOUDY    74  59  59 N23G29    30.07F HAZE
ORD            PTSUNNY   74  56  53 N22G28    30.05S HAZE
THEDFORD         N/A     73  55  53 N20G26    30.15S HAZE
$$

NEZ041-046>049-061>064-073>077-083>087-062000-
SOUTH CENTRAL NEBRASKA

CITY           SKY/WX    TMP DP  RH WIND       PRES   REMARKS
GRAND ISLAND   CLOUDY    75  62  64 N18       30.02R
AURORA         CLOUDY    74  67  79 N17G26    29.99S
HASTINGS       PTSUNNY   73  64  73 N20G25    30.01S
HEBRON         CLOUDY    73  69  85 N7        29.94S
HOLDREGE       CLOUDY    72  63  74 N20G25    30.05S
KEARNEY *      CLOUDY    73  61  64 N20G26    30.04S
YORK           CLOUDY    72  66  83 N20G25    29.98S
$$

NEZ011>018-030>034-042>045-062000-
NORTHEAST NEBRASKA

CITY           SKY/WX    TMP DP  RH WIND       PRES   REMARKS
NORFOLK        CLOUDY    73  64  73 N16       30.00R HAZE
ALBION         PTSUNNY   74  60  61 N20G26    30.02R HAZE
BLAIR          CLOUDY    74  68  80 N8        29.93S
FREMONT        CLOUDY    74  69  83 NW12G20   29.94S
TEKAMAH        CLOUDY    77  72  84 N16G23    29.92R
WAYNE          CLOUDY    72  67  83 N13       29.99R
$$

NEZ050>053-065>068-078-088>093-062000-
SOUTHEAST NEBRASKA

CITY           SKY/WX    TMP DP  RH WIND       PRES   REMARKS
LINCOLN        HVY RAIN  73  71  93 N15       29.94R VSB 3/4
OMAHA EPPLEY   CLOUDY    76  71  85 W3        29.92R
BEATRICE       CLOUDY    73  72  96 N6        29.92R
FALLS CITY     LGT RAIN  78  74  87 NW12      29.85F
NEBRASKA CITY  RAIN      75  74  95 N7        29.90S
PLATTSMOUTH    CLOUDY    75  69  82 NW14G20   29.91S
$$

NEZ044-045-051>053-067-062000-
OMAHA AREA

CITY           SKY/WX    TMP DP  RH WIND       PRES   REMARKS
OMAHA EPPLEY   CLOUDY    76  71  85 W3        29.92R
BLAIR          CLOUDY    74  68  80 N8        29.93S
FREMONT        CLOUDY    74  69  83 NW12G20   29.94S
MILLARD        CLOUDY    74  72  92 CALM      29.91F
OFFUTT AFB     LGT RAIN  73  70  91 NW8       29.91S
PLATTSMOUTH    CLOUDY    75  69  82 NW14G20   29.91S
WAHOO          CLOUDY    73  69  88 N10       29.94R
$$



USA.gov is the U.S. government's official web portal to all federal, state and local government web resources and services.